Year,Month,Day,Hour,Minute,Value (Times are PST for temperature in C)
2018,04,20,12,29,9.70
2018,04,20,12,30,9.70
2018,04,20,12,31,9.80
2018,04,20,12,32,9.80
2018,04,20,12,33,9.80
2018,04,20,12,34,9.80
2018,04,20,12,35,9.80
2018,04,20,12,36,9.80
2018,04,20,12,37,9.80
2018,04,20,12,38,9.80
2018,04,20,12,39,9.80
2018,04,20,12,40,9.80
2018,04,20,12,41,9.80
2018,04,20,12,42,9.70
2018,04,20,12,43,9.70
2018,04,20,12,44,9.70
2018,04,20,12,45,9.70
2018,04,20,12,46,9.70
2018,04,20,12,47,9.70
2018,04,20,12,48,9.70
2018,04,20,12,49,9.70
2018,04,20,12,50,9.70
2018,04,20,12,51,9.70
2018,04,20,12,52,9.70
2018,04,20,12,53,9.70
2018,04,20,12,54,9.70
2018,04,20,12,55,9.70
2018,04,20,12,56,9.70
2018,04,20,12,57,9.70
2018,04,20,12,58,9.70
2018,04,20,12,59,9.70
2018,04,20,13,00,9.60
2018,04,20,13,01,9.60
2018,04,20,13,02,9.60
2018,04,20,13,03,9.60
2018,04,20,13,04,9.60
2018,04,20,13,05,9.60
2018,04,20,13,06,9.60
2018,04,20,13,07,9.60
2018,04,20,13,08,9.70
2018,04,20,13,09,9.70
2018,04,20,13,10,9.70
2018,04,20,13,11,9.70
2018,04,20,13,12,9.70
2018,04,20,13,13,9.70
2018,04,20,13,14,9.70
2018,04,20,13,15,9.70
2018,04,20,13,16,9.70
2018,04,20,13,17,9.70
2018,04,20,13,18,9.70
2018,04,20,13,19,9.70
2018,04,20,13,20,9.70
2018,04,20,13,21,9.70
2018,04,20,13,22,9.70
2018,04,20,13,23,9.70
2018,04,20,13,24,9.70
2018,04,20,13,25,9.70
2018,04,20,13,26,9.70
2018,04,20,13,27,9.70
2018,04,20,13,28,9.70
2018,04,20,13,29,9.70
2018,04,20,13,30,9.70
2018,04,20,13,31,9.70
2018,04,20,13,32,9.70
2018,04,20,13,33,9.70
2018,04,20,13,34,9.70
2018,04,20,13,35,9.70
2018,04,20,13,36,9.70
2018,04,20,13,37,9.70
2018,04,20,13,38,9.80
2018,04,20,13,39,9.80
2018,04,20,13,40,9.80
2018,04,20,13,41,9.80
2018,04,20,13,42,9.80
2018,04,20,13,43,9.80
2018,04,20,13,44,9.80
2018,04,20,13,45,9.80
2018,04,20,13,46,9.80
2018,04,20,13,47,9.80
2018,04,20,13,48,9.70
2018,04,20,13,49,9.70
2018,04,20,13,50,9.70
2018,04,20,13,51,9.70
2018,04,20,13,52,9.70
2018,04,20,13,53,9.70
2018,04,20,13,54,9.70
2018,04,20,13,55,9.70
2018,04,20,13,56,9.70
2018,04,20,13,57,9.70
2018,04,20,13,58,9.60
2018,04,20,13,59,9.70
2018,04,20,14,00,9.70
2018,04,20,14,01,9.70
2018,04,20,14,02,9.70
2018,04,20,14,03,9.70
2018,04,20,14,04,9.70
2018,04,20,14,05,9.70
2018,04,20,14,06,9.70
2018,04,20,14,07,9.70
2018,04,20,14,08,9.70
2018,04,20,14,09,9.70
2018,04,20,14,10,9.70
2018,04,20,14,11,9.70
2018,04,20,14,12,9.70
2018,04,20,14,13,9.80
2018,04,20,14,14,9.80
2018,04,20,14,15,9.80
2018,04,20,14,16,9.70
2018,04,20,14,17,9.70
2018,04,20,14,18,9.70
2018,04,20,14,19,9.70
2018,04,20,14,20,9.80
2018,04,20,14,21,9.80
2018,04,20,14,22,9.80
2018,04,20,14,23,9.80
2018,04,20,14,24,9.80
2018,04,20,14,25,9.80
2018,04,20,14,26,9.80
2018,04,20,14,27,9.80
2018,04,20,14,28,9.80
2018,04,20,14,29,9.80
2018,04,20,14,30,9.80
2018,04,20,14,31,9.80
2018,04,20,14,32,9.80
2018,04,20,14,33,9.90
2018,04,20,14,34,9.90
2018,04,20,14,35,9.90
2018,04,20,14,36,9.90
2018,04,20,14,37,9.90
2018,04,20,14,38,9.90
2018,04,20,14,39,9.80
2018,04,20,14,40,9.80
2018,04,20,14,41,9.80
2018,04,20,14,42,9.80
2018,04,20,14,43,9.70
2018,04,20,14,44,9.70
2018,04,20,14,45,9.70
2018,04,20,14,46,9.70
2018,04,20,14,47,9.70
2018,04,20,14,48,9.70
2018,04,20,14,49,9.70
2018,04,20,14,50,9.70
2018,04,20,14,51,9.70
2018,04,20,14,52,9.70
2018,04,20,14,53,9.70
2018,04,20,14,54,9.70
2018,04,20,14,55,9.70
2018,04,20,14,56,9.80
2018,04,20,14,57,9.80
2018,04,20,14,58,9.80
2018,04,20,14,59,9.80
2018,04,20,15,00,9.80
2018,04,20,15,01,9.80
2018,04,20,15,02,9.80
2018,04,20,15,03,9.80
2018,04,20,15,04,9.80
2018,04,20,15,05,9.80
2018,04,20,15,06,9.80
2018,04,20,15,07,9.80
2018,04,20,15,08,9.80
2018,04,20,15,09,9.80
2018,04,20,15,10,9.80
2018,04,20,15,11,9.80
2018,04,20,15,12,9.80
2018,04,20,15,13,9.80
2018,04,20,15,14,9.80
2018,04,20,15,15,9.80
2018,04,20,15,16,9.80
2018,04,20,15,17,9.80
2018,04,20,15,18,9.80
2018,04,20,15,19,9.90
2018,04,20,15,20,9.90
2018,04,20,15,21,9.90
2018,04,20,15,22,9.90
2018,04,20,15,23,9.90
2018,04,20,15,24,9.90
2018,04,20,15,25,9.90
2018,04,20,15,26,10.00
2018,04,20,15,27,10.00
2018,04,20,15,28,10.00
2018,04,20,15,29,10.10
2018,04,20,15,30,10.10
2018,04,20,15,31,10.10
2018,04,20,15,32,10.10
2018,04,20,15,33,10.10
2018,04,20,15,34,10.10
2018,04,20,15,35,10.10
2018,04,20,15,36,10.10
2018,04,20,15,37,10.10
2018,04,20,15,38,10.20
2018,04,20,15,39,10.20
2018,04,20,15,40,10.20
2018,04,20,15,41,10.30
2018,04,20,15,42,10.30
2018,04,20,15,43,10.30
2018,04,20,15,44,10.40
2018,04,20,15,45,10.40
2018,04,20,15,46,10.40
2018,04,20,15,47,10.50
2018,04,20,15,48,10.50
2018,04,20,15,49,10.50
2018,04,20,15,50,10.50
2018,04,20,15,51,10.50
2018,04,20,15,52,10.50
2018,04,20,15,53,10.50
2018,04,20,15,54,10.50
2018,04,20,15,55,10.50
2018,04,20,15,56,10.40
2018,04,20,15,57,10.40
2018,04,20,15,58,10.40
2018,04,20,15,59,10.40
2018,04,20,16,00,10.30
2018,04,20,16,01,10.30
2018,04,20,16,02,10.30
2018,04,20,16,03,10.20
2018,04,20,16,04,10.20
2018,04,20,16,05,10.20
2018,04,20,16,06,10.10
2018,04,20,16,07,10.10
2018,04,20,16,08,10.00
2018,04,20,16,09,10.00
2018,04,20,16,10,9.90
2018,04,20,16,11,9.90
2018,04,20,16,12,9.90
2018,04,20,16,13,9.80
2018,04,20,16,14,9.80
2018,04,20,16,15,9.80
2018,04,20,16,16,9.80
2018,04,20,16,17,9.80
2018,04,20,16,18,9.70
2018,04,20,16,19,9.70
2018,04,20,16,20,9.70
2018,04,20,16,21,9.60
2018,04,20,16,22,9.60
2018,04,20,16,23,9.60
2018,04,20,16,24,9.50
2018,04,20,16,25,9.50
2018,04,20,16,26,9.40
2018,04,20,16,27,9.40
2018,04,20,16,28,9.40
2018,04,20,16,29,9.40
2018,04,20,16,30,9.40
2018,04,20,16,31,9.40
2018,04,20,16,32,9.40
2018,04,20,16,33,9.40
2018,04,20,16,34,9.40
2018,04,20,16,35,9.40
2018,04,20,16,36,9.40
2018,04,20,16,37,9.40
2018,04,20,16,38,9.40
